Starlink 11101

operational
NORAD ID: 59715 Int'l Des: 2024-088 Owner: SPXS Country: US Constellation: starlink
LEOCIRCULAR

Starlink 11101について

説明を読み込み中...

リアルタイム位置

3D地球を読み込み中...

次回通過

高度履歴

Altitude vs Time

uPlot chart will show altitude changes over time

軌道要素

1 59715U 24088H 25258.79117156 .00001716 00000-0 19006-4 0 9993
2 59715 53.1592 108.3703 0001008 76.4234 283.6896 15.69726468 78800
Epoch: Sep 15, 2025 • Age: 15 hours

現在のステータス

高度 371.1 km
速度 7.69 km/s
衛星直下点 -34.29°S, 174.89°E
打ち上げ日 May 10, 2024
運用期間 1.3 years
タイプ internet

技術仕様

分類 Payload
質量 960.00 kg
乾燥質量 910.00 kg
総質量 960.00 kg
長さ 0.30 m
直径 4.10 m
スパン 29.00 m
形状 Box + pan
製造者 SPXS
バスタイプ Starlink V2MD
フェーズステータス In Orbit
所有者/国 SPXS/US

大規模コンステレーション

Loading constellations...